KUIPER-00119

导读 | 豆包AI

KUIPER-00119是美国亚马逊“柯伊伯计划”中的一颗近地轨道互联网卫星,于2025年8月11日发射入轨,属于柯伊伯第一代星座系统的组成部分。该项目计划部署超3200颗卫星打造卫星互联网,旨在挑战SpaceX星链的市场主导地位。KUIPER-00119的成功发射,助力亚马逊推进星座部署进度,以满足FCC对2026年7月前完成一半部署的许可要求,推动全球卫星互联网组网进程。

基本信息
目录编号:
65155
目录名称:
KUIPER-00119
国际标识:
2025-171Z
轨道中心:
EARTH
卫星名称:
KUIPER-00119
卫星全名:
KUIPER-00119
卫星状态:
在轨 (已飞行287 天)
发射日期:
2025-08-11 UTC
国别 :
美国 (US)
星等 :
--
轨道信息
数据来源 国际轨道数据
星历时间: 2026-05-23T20:56:48+0800
1天前
查看轨道信息
半长轴: 7008.639km
偏心率: 0.0001281
轨道倾角: 51.900°
近地点辐角 103.576°
升交点赤经 192.295°
平近点角 256.535°
近地点: 629.604km
远地点: 631.4km
周期: 97.322分钟
每日圈数: 14.796272
详细信息
使用方式:
暂无
2D轨道图
3D轨道图
轨道高度分析图
轨道倾角分析图
轨道综合分析图
查看轨道综合分析图